Dewpoint
-0 2 1 4 4 5 1 1 3 3 1 2 2 2 0 2 1 1 1 1 1 -0 1 3 4 4 2 1 -0 2 3 3 4 5 3 3 3 4 2 2 2 1 1 0
1 3 3 4 4 4 -0 3 2 3 2 2 2 -0 2 2 2 1 2 2 0 1 1 3 3 3 2 0 1 1 2 2 5 5 2 1 4 3 3 2 1 1 2 -1
1 3 3 4 5 3 -0 1 2 2 2 2 1 2 3 3 1 1 -0 -1 -1 1 3 1 3 3 2 1 1 0 1 2 1 2 1 2 4 3 4 2 2 3 2 0
1 4 3 4 6 1 -0 1 1 2 2 2 2 2 2 3 2 -0 -1 -1 -0 0 3 2 3 3 3 2 1 0 1 2 -2 1 3 3 3 3 3 3 3 3 1 2
2 4 3 4 5 1 -1 1 1 1 0 0 0 2 2 2 1 0 0 0 -0 0 2 2 3 3 3 2 1 1 1 2 1 2 1 2 2 2 2 2 2 3 2 2
2 4 4 4 3 1 -0 -1 1 -1 0 0 1 2 1 1 1 2 0 -1 2 2 2 1 0 -1 -1 1 2 2 2 1 1 2 0 0 2 0 1 2 2 2 3 1
3 4 4 4 2 2 -1 -3 -0 -2 1 1 1 1 1 1 1 2 2 1 2 2 0 0 -1 -1 -1 -0 -0 1 2 3 2 2 0 3 -1 -4 -2 1 0 0 1 -1
4 3 4 4 1 1 -4 -4 -5 -5 -1 -2 -0 1 1 1 2 2 1 1 1 1 0 0 1 1 1 0 -0 0 2 3 4 3 2 0 0 -3 -3 -2 0 -0 -1 -1
4 3 4 3 0 -1 -5 -5 -5 -5 -3 -4 -3 -1 0 0 1 -0 -0 2 2 2 1 1 2 3 2 3 2 -1 1 1 2 5 3 4 -2 -2 -3 -5 1 0 1 1
5 5 4 3 0 -1 -4 -5 -5 -5 -4 -4 -3 -2 -2 -0 -0 -1 -0 1 1 1 1 2 1 1 -0 3 2 2 2 2 4 3 4 1 -2 -3 -3 -1 -2 -1 -1 -0
3 4 3 2 -0 -3 -4 -6 -5 -7 -4 -3 -4 -4 -4 -3 -1 -1 -1 -0 0 0 0 1 1 1 0 -0 -0 1 2 1 2 2 4 2 -3 -3 -2 -3 -0 -0 -1 -1
4 3 3 1 -2 -4 -5 -6 -5 -7 -5 -3 -4 -4 -4 -3 -3 -0 -0 -1 -0 -0 -1 -1 0 1 -1 -2 2 -2 0 -1 0 0 1 -3 -2 -2 -2 -2 -1 -0 -1 -1
3 3 1 -2 -4 -4 -6 -5 -6 -7 -5 -5 -5 -5 -4 -3 -3 -1 -1 -0 -0 0 -0 -1 -0 1 -1 -0 -1 -0 -2 -2 -1 -1 -2 -2 -1 -1 -2 -2 -2 -2 -2 -2
3 -1 -3 -3 -5 -6 -7 -6 -7 -8 -8 -4 -3 -5 -5 -4 -4 -3 -3 -2 -1 -0 -0 -1 -2 1 -0 0 -1 -1 -2 -2 -1 -1 -1 -2 -2 -2 -3 -3 -2 -2 -2 -2
2 -2 -4 -4 -5 -7 -6 -5 -8 -9 -7 -3 -3 -4 -4 -4 -4 -3 -2 -1 -1 -2 -3 -2 -1 -1 -1 -2 -2 -1 -2 -1 -1 -0 -2 -1 -2 -2 -2 -1 -1 -1 -0 -1
-3 -6 -4 -5 -7 -7 -6 -8 -6 -5 -9 -4 -3 -3 -3 -4 -5 -3 -3 -3 -3 -3 -3 -4 -4 -4 -2 -2 -1 -3 -2 -2 -2 -3 -3 -3 -2 -1 -1 -2 -1 -0 0 0
-4 -6 -6 -5 -6 -6 -6 -6 -5 -7 -4 -5 -3 -4 -3 -3 -4 -5 -5 -5 -4 -5 -4 -3 -3 -4 -4 -3 -2 -4 -5 -5 -5 -4 -2 -1 -1 -1 -1 -1 -0 -0 0 1
-1 -4 -5 -6 -4 -5 -4 -3 -5 -3 -3 -3 -3 -2 -3 -3 -2 -3 -3 -4 -4 -4 -3 -4 -4 -3 -4 -3 -4 -5 -5 -4 -3 -1 -1 -1 -1 -1 -1 -1 -1 -1 -1 -0
-2 -3 -4 -7 -6 -7 -4 -4 -5 -3 -4 -3 -4 -3 -2 -2 -2 -3 -3 -3 -3 -4 -3 -3 -4 -4 -3 -5 -6 -5 -5 -5 -2 -1 -1 -1 -1 -1 -1 -2 -2 -2 -1 -1
-3 -3 -3 -3 -7 -6 -5 -6 -6 -5 -3 -1 -3 -3 -3 -2 -3 -3 -3 -2 -2 -3 -3 -3 -3 -3 -4 -5 -5 -5 -5 -5 -1 -1 -2 -1 -1 -1 -1 -2 -2 -3 -1 -2
-4 -5 -5 -4 -6 -6 -6 -5 -4 -3 -3 -2 -2 -4 -2 -3 -4 -3 -4 -2 -3 -5 -4 -3 -4 -3 -4 -5 -4 -7 -6 -5 -2 -2 -2 -1 -1 -2 -2 -2 -2 -2 -3 -2
-6 -7 -4 -6 -3 -3 -3 -4 -4 -3 -3 -2 -3 -3 -2 -2 -3 -3 -2 -4 -4 -4 -3 -2 -3 -4 -5 -4 -4 -4 -4 -2 -2 -2 -1 -1 -2 -2 -2 -2 -2 -3 -3 -2
-8 -6 -3 -2 -3 -3 -2 -4 -4 -2 -2 -2 -2 -3 -2 -3 -3 -4 -4 -4 -4 -3 -2 -2 -4 -4 -3 -3 -3 -2 -2 -2 -2 -1 -1 -2 -3 -4 -6 -8 -8 -3 -2 -2
-7 -5 -4 -4 -3 -5 -3 -2 -2 -3 -2 -2 -3 -2 -2 -3 -4 -4 -6 -4 -2 -2 -3 -4 -4 -4 -2 -2 -2 -2 -2 -2 -2 -4 -4 -5 -6 -6 -7 -8 -9 -9 -4 -3
-8 -8 -4 -5 -6 -3 -1 -1 -2 -2 -2 -4 -3 -3 -3 -5 -3 -4 -3 -2 -2 -3 -4 -5 -3 -2 -2 -2 -2 -2 -5 -7 -7 -6 -6 -7 -6 -8 -11 -11 -9 -8 -6 -4
-7 -5 -6 -4 -3 -2 -1 -2 -1 -2 -4 -6 -6 -5 -6 -3 -4 -4 -5 -4 -4 -6 -6 -2 -1 -2 -2 -2 -2 -3 -6 -6 -6 -6 -6 -6 -8 -10 -12 -11 -9 -8 -6 -5
-5 -6 -5 -5 -4 -2 -1 -1 -2 -4 -7 -4 -5 -7 -7 -5 -6 -5 -5 -5 -6 -6 -1 -1 -2 -2 -3 -3 -2 -3 -5 -6 -7 -6 -6 -6 -8 -9 -12 -12 -10 -9 -7 -6
Wind_Speed
46 41 30 32 45 43 41 17 6 25 25 5 5 5 4 6 5 3 2 4 4 4 6 5 4 6 3 5 3 3 1 4 3 1 2 1 1 2 2 4 2 1 3 4
41 24 30 35 59 47 38 11 12 22 27 4 5 4 5 6 4 5 5 4 1 2 4 2 4 3 2 5 3 2 2 2 3 2 4 3 1 3 3 4 3 2 3 4
38 20 7 59 54 47 27 14 5 7 18 7 4 4 5 4 5 4 3 3 3 2 2 3 3 2 3 5 3 3 3 3 5 5 5 3 3 4 3 4 3 2 4 2
34 19 18 53 46 43 27 11 5 10 7 11 7 2 6 5 5 2 6 1 3 3 3 2 3 3 2 4 2 2 3 4 3 0 3 2 2 3 6 7 5 5 4 6
30 25 27 55 47 39 21 12 7 10 6 13 15 6 4 8 4 5 4 4 4 6 4 3 4 5 3 3 1 2 2 2 2 2 1 2 1 3 3 4 4 6 4 6
29 17 38 54 51 41 14 8 14 12 12 5 10 5 6 8 9 5 5 5 6 6 5 5 6 5 4 6 6 2 3 4 2 2 4 5 5 6 6 4 4 5 7 7
24 21 29 42 48 33 12 15 14 6 3 4 7 8 4 11 5 7 3 7 5 6 9 8 6 7 8 8 4 5 4 3 2 1 2 1 4 1 2 7 3 5 5 1
10 26 40 43 48 34 12 18 6 5 3 2 3 8 7 13 14 6 5 4 8 14 7 4 4 4 3 3 5 4 4 4 3 3 3 5 1 1 1 1 2 3 2 4
14 19 38 45 46 34 16 19 8 5 7 2 2 5 10 5 4 4 4 8 10 6 3 3 4 4 4 3 1 5 5 5 3 2 2 4 4 1 3 3 2 5 9 5
12 27 42 39 46 35 17 16 8 6 9 6 4 4 4 8 6 4 4 4 3 2 2 3 2 3 4 4 7 5 3 1 4 3 2 5 4 4 1 3 5 3 6 6
6 32 36 32 41 38 20 11 9 5 8 12 6 6 6 7 8 4 8 5 1 3 3 3 3 2 4 3 4 6 5 5 3 2 2 7 7 1 3 2 5 6 5 4
15 26 33 31 31 32 21 16 9 7 10 12 17 16 13 10 8 12 5 2 3 4 4 0 3 2 1 3 3 1 2 5 4 6 5 3 1 3 7 9 9 4 1 1
20 31 29 29 25 27 21 18 16 12 19 13 8 12 11 8 9 11 5 4 5 4 5 5 2 2 2 3 3 0 2 2 3 2 3 3 11 9 6 4 3 2 4 5
31 32 30 25 22 24 21 19 17 13 12 6 7 6 9 8 5 4 3 9 11 11 6 4 2 2 3 3 2 2 4 2 3 1 4 9 7 5 2 1 2 5 8 11
28 27 25 23 21 21 16 19 16 14 3 6 8 12 10 8 7 9 11 13 15 7 4 3 1 1 1 1 2 2 4 4 4 4 9 3 5 2 2 4 7 10 12 15
28 26 23 20 20 18 21 6 6 8 15 9 3 5 7 10 9 10 12 12 8 5 4 3 3 2 1 1 2 3 4 4 5 4 7 2 3 4 4 7 10 9 11 11
28 27 25 21 19 22 3 4 13 18 6 6 5 4 3 7 8 9 9 7 6 4 3 2 2 2 1 1 3 4 10 6 5 5 4 3 4 4 8 11 10 9 10 9
27 25 24 23 20 12 6 13 20 11 3 5 4 3 3 4 4 4 3 3 3 4 2 2 2 2 1 3 8 8 11 8 5 6 4 3 5 5 8 8 10 10 10 12
30 23 21 22 14 4 8 15 7 4 1 7 4 5 4 8 4 4 3 2 3 2 1 1 2 1 4 6 9 17 14 8 9 6 5 5 5 7 7 10 9 9 11 12
31 29 8 6 9 10 14 3 1 2 1 3 4 7 3 9 4 3 4 1 2 1 2 4 2 3 14 9 7 13 14 10 8 6 6 6 7 6 7 9 10 10 12 12
26 8 5 16 18 10 4 3 1 0 3 3 5 6 7 8 3 3 4 2 1 2 3 3 2 3 4 9 13 14 12 10 8 7 7 8 7 6 8 9 10 12 13 13
13 10 27 21 4 2 3 0 2 1 4 5 7 8 7 6 5 5 5 3 1 2 7 2 3 4 6 12 18 13 11 10 8 8 7 8 10 9 10 11 12 14 14 14
29 7 7 4 2 2 6 6 3 2 9 10 13 4 6 5 3 4 3 3 3 9 2 3 4 3 9 14 16 14 11 9 8 8 8 9 10 11 13 16 16 15 17 14
5 6 6 5 3 5 4 4 4 6 15 28 21 8 5 4 3 3 5 3 4 3 3 6 3 12 15 15 13 11 8 9 9 9 9 9 10 13 16 18 19 19 18 15
4 6 6 5 4 2 5 13 13 12 31 28 14 8 5 2 4 2 3 4 4 5 5 3 4 11 16 15 13 9 7 7 9 9 10 10 13 16 18 19 19 19 18 18
3 4 5 5 4 2 5 12 17 23 31 17 6 4 4 1 4 3 6 7 6 4 3 4 10 12 12 10 10 8 7 9 11 12 12 13 15 17 19 20 20 19 18 18
3 1 3 7 6 5 8 17 16 34 21 3 4 4 5 4 3 2 4 5 3 6 9 12 10 8 5 6 8 9 11 12 14 14 15 16 16 18 20 22 18 17 17 17
Wind_Direction
304 311 227 220 205 181 164 144 97 169 161 146 195 205 222 231 173 154 153 157 204 170 162 165 185 174 250 208 164 119 110 123 80 141 275 315 152 208 94 113 246 78 144 285
306 310 256 256 180 181 158 106 94 171 171 175 202 226 265 227 150 167 176 193 174 147 175 119 106 117 41 80 53 107 184 2 87 12 345 4 252 203 122 87 58 237 114 266
318 316 290 178 181 173 167 109 150 160 190 225 169 216 203 176 174 152 164 143 133 129 140 101 130 106 43 75 88 57 125 110 149 181 215 142 186 217 158 110 103 185 222 260
326 327 260 191 185 163 161 156 172 169 184 205 207 193 183 159 155 167 163 140 171 150 129 92 102 94 107 59 65 105 110 121 103 211 116 136 210 215 177 190 189 161 225 210
330 326 227 194 189 165 147 149 142 161 163 166 192 217 228 163 145 136 180 167 167 117 127 196 164 133 165 192 9 108 4 134 126 44 7 67 293 278 261 228 203 245 225 248
320 304 195 187 175 171 158 147 137 138 154 132 163 199 193 169 126 54 122 157 107 95 145 110 98 99 119 168 145 93 70 116 82 288 356 358 319 232 203 216 219 201 221 235
325 200 195 184 172 171 176 160 146 123 149 148 193 159 163 150 138 128 68 117 102 141 131 103 82 72 80 93 40 124 115 83 57 215 27 14 244 267 196 219 274 268 287 233
313 195 198 183 174 177 174 176 151 120 106 131 100 120 111 95 90 82 92 68 119 139 116 74 55 354 24 27 26 55 130 129 130 161 190 281 163 294 136 115 354 307 172 105
195 218 203 182 173 181 175 178 164 104 119 23 79 109 134 121 103 53 73 102 133 130 90 95 147 190 193 195 60 28 77 86 117 175 149 215 271 332 75 101 309 358 93 82
237 218 190 174 178 182 176 168 154 119 101 34 83 103 143 131 101 99 126 140 106 91 91 101 147 223 172 162 166 171 123 117 177 187 223 289 245 213 128 123 220 117 94 74
211 192 179 169 183 190 186 167 164 129 99 57 96 121 115 121 128 135 158 103 335 53 86 134 187 168 228 126 172 172 161 153 196 136 177 254 192 151 173 158 123 136 104 62
205 189 169 172 180 188 188 171 157 139 106 110 93 93 97 113 120 131 134 118 126 145 95 76 111 183 58 147 207 89 170 179 183 176 216 220 151 131 121 172 167 168 186 323
196 169 168 176 177 186 190 175 159 142 107 86 107 66 89 99 130 146 130 156 148 133 111 142 145 128 125 158 238 232 326 173 148 114 3 120 124 115 122 137 150 250 285 292
161 165 166 167 172 178 185 173 162 150 119 99 47 84 94 81 97 142 159 162 143 128 104 83 107 126 192 189 186 174 205 105 152 33 59 102 99 95 133 237 292 283 286 294
152 157 156 159 161 162 160 170 157 159 106 126 121 88 80 88 96 114 124 137 139 118 85 63 125 85 97 25 78 255 193 180 162 218 185 139 159 230 267 294 302 304 306 306
153 149 154 143 157 150 155 126 189 186 136 108 99 84 81 94 108 119 117 124 107 87 93 113 98 83 71 105 216 253 197 172 159 171 169 199 228 239 263 300 296 298 303 309
144 148 148 154 156 163 117 161 163 164 157 107 115 110 151 114 98 85 81 88 86 83 98 84 126 116 83 155 227 203 173 157 151 170 182 201 212 258 300 305 309 294 294 296
147 149 148 148 154 142 68 132 146 151 135 97 109 89 130 152 93 82 67 78 73 54 89 110 124 137 104 250 234 184 172 168 183 179 182 240 266 277 303 311 319 323 316 300
150 156 160 150 147 91 112 129 137 143 154 117 108 137 167 152 105 100 84 81 71 54 82 175 138 187 229 229 200 192 187 188 181 193 255 265 255 273 285 305 314 307 305 307
148 142 134 128 142 132 134 140 200 204 96 85 90 121 126 154 129 117 119 89 146 129 233 141 229 255 256 250 227 205 193 196 199 222 253 252 281 280 291 302 308 300 297 300
145 140 107 139 144 147 187 195 114 107 43 82 115 128 132 169 123 143 166 166 141 94 247 157 263 270 241 201 195 186 200 214 232 248 264 277 279 268 289 299 299 297 299 302
150 147 124 130 168 132 108 293 342 123 187 147 120 141 124 130 130 107 172 131 121 218 154 220 257 251 237 180 183 189 206 217 237 257 260 268 291 289 290 297 301 301 297 298
138 119 110 124 149 72 176 187 260 177 179 158 148 136 123 120 109 100 117 106 197 143 201 230 225 241 183 174 183 190 206 226 241 247 261 273 286 299 308 309 301 293 293 291
141 136 128 179 184 244 187 188 150 148 152 142 135 111 114 118 85 128 100 218 148 210 239 234 240 214 185 182 190 203 222 239 242 253 258 271 286 297 299 300 307 302 288 291
135 154 175 185 192 145 138 125 123 132 147 136 112 90 102 65 124 155 135 160 221 215 232 232 209 176 184 192 202 215 215 253 264 260 266 280 291 298 301 301 298 293 293 286
130 117 100 140 115 132 142 131 130 143 143 130 99 103 73 125 140 116 202 154 218 242 218 181 152 164 178 198 219 218 258 276 274 271 275 284 293 302 302 299 297 293 290 283
119 82 150 160 106 136 150 149 158 157 148 127 124 103 182 107 72 222 192 204 216 198 164 154 158 166 188 216 234 261 278 281 279 276 278 284 293 302 301 305 310 290 286 281
Height
1400 1395 1398 1400 1408 1414 1425 1428 1437 1457 1459 1467 1466 1465 1461 1453 1453 1454 1455 1457 1457 1457 1462 1466 1467 1472 1470 1467 1468 1472 1473 1482 1496 1486 1483 1483 1482 1483 1486 1505 1499 1513 1515 1494
1393 1390 1388 1385 1390 1402 1412 1423 1438 1454 1456 1460 1460 1460 1456 1451 1452 1453 1455 1456 1455 1456 1460 1465 1466 1468 1469 1468 1469 1471 1473 1488 1493 1490 1488 1484 1484 1482 1482 1489 1500 1511 1507 1497
1377 1376 1382 1376 1386 1395 1405 1415 1446 1451 1453 1453 1455 1457 1450 1449 1449 1450 1452 1453 1454 1457 1460 1460 1467 1469 1469 1469 1470 1471 1473 1485 1490 1500 1490 1487 1489 1483 1483 1491 1513 1499 1499 1486
1372 1377 1382 1383 1386 1395 1401 1418 1429 1430 1440 1446 1450 1450 1446 1448 1449 1449 1451 1453 1454 1457 1461 1463 1468 1469 1471 1471 1471 1471 1473 1490 1498 1483 1481 1484 1484 1483 1486 1492 1487 1499 1489 1489
1371 1369 1375 1377 1385 1394 1399 1409 1416 1426 1432 1438 1447 1449 1444 1444 1446 1449 1452 1453 1455 1457 1461 1464 1467 1468 1469 1468 1471 1472 1474 1493 1487 1483 1482 1483 1483 1482 1484 1485 1485 1486 1486 1488
1370 1368 1369 1375 1384 1395 1399 1406 1409 1415 1431 1437 1443 1441 1438 1440 1443 1450 1449 1451 1455 1461 1464 1464 1465 1465 1466 1466 1470 1474 1477 1486 1495 1499 1490 1487 1489 1480 1479 1479 1479 1478 1484 1476
1365 1368 1374 1379 1386 1396 1401 1405 1409 1413 1428 1431 1433 1432 1434 1438 1441 1448 1452 1452 1454 1463 1462 1465 1467 1467 1468 1469 1470 1472 1481 1487 1495 1503 1496 1506 1478 1474 1475 1477 1476 1476 1475 1474
1362 1367 1373 1380 1388 1397 1404 1408 1411 1412 1426 1427 1430 1431 1435 1439 1443 1449 1452 1455 1457 1460 1463 1471 1475 1478 1474 1475 1475 1475 1475 1484 1489 1499 1504 1486 1472 1473 1474 1474 1478 1475 1473 1473
1362 1366 1372 1379 1389 1399 1406 1409 1411 1413 1420 1432 1432 1434 1436 1442 1447 1452 1456 1458 1459 1461 1464 1470 1479 1484 1478 1481 1479 1478 1478 1480 1486 1489 1499 1490 1477 1471 1470 1470 1483 1476 1473 1474
1359 1361 1371 1382 1392 1401 1406 1409 1412 1415 1422 1431 1432 1435 1438 1440 1444 1453 1457 1459 1461 1461 1468 1477 1481 1478 1474 1481 1483 1483 1483 1485 1487 1495 1489 1486 1474 1470 1468 1478 1482 1474 1474 1475
1364 1368 1375 1385 1393 1401 1407 1410 1413 1416 1424 1434 1434 1435 1438 1441 1443 1451 1455 1460 1462 1464 1470 1473 1477 1478 1473 1475 1476 1479 1482 1490 1492 1493 1488 1493 1469 1471 1476 1477 1475 1475 1475 1474
1368 1373 1380 1386 1393 1402 1407 1411 1414 1417 1422 1437 1438 1439 1441 1443 1445 1448 1453 1456 1457 1460 1468 1472 1473 1474 1476 1477 1479 1473 1477 1475 1480 1481 1479 1468 1469 1469 1471 1471 1470 1472 1474 1473
1371 1377 1385 1391 1396 1403 1407 1411 1415 1419 1428 1439 1441 1443 1445 1446 1447 1449 1452 1456 1457 1458 1460 1465 1470 1470 1475 1477 1478 1472 1470 1469 1472 1473 1471 1471 1471 1471 1471 1472 1473 1474 1473 1472
1374 1382 1388 1393 1399 1404 1409 1412 1416 1420 1426 1437 1449 1447 1448 1449 1449 1450 1451 1452 1456 1459 1462 1464 1470 1470 1472 1475 1474 1474 1471 1470 1472 1474 1473 1473 1473 1473 1473 1474 1474 1473 1472 1472
1380 1385 1390 1395 1401 1406 1411 1416 1418 1421 1425 1437 1448 1450 1452 1452 1452 1452 1453 1455 1457 1460 1463 1467 1471 1471 1473 1472 1473 1473 1467 1468 1472 1473 1467 1470 1471 1472 1472 1472 1472 1471 1470 1468
1383 1388 1393 1398 1405 1410 1414 1419 1421 1422 1423 1428 1447 1455 1455 1454 1454 1455 1456 1457 1459 1461 1464 1469 1470 1472 1474 1476 1475 1464 1464 1464 1465 1466 1469 1470 1471 1471 1471 1471 1469 1468 1467 1466
1388 1393 1398 1403 1408 1412 1414 1416 1417 1422 1425 1427 1447 1455 1456 1456 1455 1457 1459 1460 1461 1464 1466 1469 1470 1471 1472 1474 1474 1461 1462 1464 1464 1466 1467 1469 1469 1470 1469 1467 1465 1463 1462 1460
1390 1395 1402 1405 1411 1415 1415 1416 1421 1424 1425 1428 1441 1454 1457 1457 1457 1459 1461 1462 1464 1466 1468 1470 1470 1472 1473 1472 1459 1459 1460 1463 1464 1464 1465 1466 1467 1467 1466 1465 1464 1462 1460 1459
1392 1400 1405 1410 1414 1416 1419 1421 1425 1425 1429 1429 1436 1446 1454 1456 1458 1460 1463 1463 1468 1469 1468 1469 1472 1471 1469 1455 1455 1457 1458 1459 1461 1463 1464 1464 1463 1463 1463 1462 1461 1460 1458 1456
1396 1403 1408 1412 1415 1419 1421 1426 1425 1426 1426 1428 1435 1441 1448 1452 1455 1460 1463 1464 1467 1471 1470 1469 1469 1463 1451 1451 1453 1455 1457 1458 1459 1460 1462 1461 1460 1460 1459 1458 1458 1456 1455 1453
1394 1397 1403 1410 1416 1421 1424 1424 1424 1426 1429 1428 1434 1439 1442 1450 1453 1457 1460 1463 1465 1476 1471 1471 1472 1461 1446 1445 1450 1453 1455 1456 1457 1457 1457 1458 1457 1456 1456 1454 1454 1452 1452 1450
1393 1396 1404 1414 1419 1420 1423 1428 1426 1425 1427 1429 1432 1438 1441 1446 1449 1453 1459 1464 1465 1473 1466 1466 1466 1447 1442 1444 1447 1450 1453 1454 1455 1454 1454 1454 1455 1454 1452 1451 1450 1450 1448 1446
1391 1397 1404 1411 1419 1422 1419 1425 1426 1425 1422 1424 1428 1436 1440 1445 1448 1452 1455 1463 1467 1463 1463 1458 1450 1441 1441 1444 1446 1448 1450 1452 1452 1452 1452 1452 1452 1451 1450 1448 1446 1445 1444 1442
1385 1389 1408 1408 1413 1410 1403 1402 1402 1407 1410 1417 1425 1431 1437 1442 1447 1451 1463 1458 1459 1460 1465 1454 1438 1436 1440 1443 1446 1447 1448 1449 1450 1450 1449 1449 1449 1448 1447 1445 1443 1440 1440 1439
1382 1385 1389 1401 1397 1398 1398 1400 1403 1407 1411 1414 1423 1430 1435 1443 1448 1450 1452 1456 1455 1454 1450 1439 1432 1434 1438 1441 1444 1445 1445 1447 1448 1447 1447 1446 1445 1444 1443 1441 1439 1436 1435 1434
1381 1384 1390 1393 1396 1397 1398 1400 1404 1406 1410 1415 1421 1431 1441 1444 1444 1451 1457 1457 1455 1441 1434 1431 1433 1436 1439 1441 1443 1443 1443 1444 1445 1444 1443 1442 1441 1439 1437 1436 1434 1433 1431 1429
1380 1382 1384 1386 1387 1390 1394 1397 1401 1406 1408 1414 1420 1432 1438 1441 1450 1448 1443 1441 1431 1427 1428 1431 1434 1436 1438 1440 1441 1441 1440 1440 1441 1440 1439 1438 1436 1434 1433 1431 1430 1427 1426 1425